BLOCK DM-SL DEB, 45041

Orbit data source: Space-Track

BLOCK DM-SL DEB, 45041 is space debris in GEO originally from a launch on Tue, 24 Dec 2019 UTC launched from the Tyuratam Missile And Space Complex (TTMTR). Debris objects in space refer to the collection of defunct objects orbiting the Earth. Examples of debris include non-operational satellites, rocket bodies, and fragments generated from explosions, collisions, or faulty payload assembly.

Not visible in the next 10 days
Identifier
45041, 2019-095C
Orbit
GEO
Last TLE update
2 days ago
Origin
Manufacturer
RKKE
Mission
Spacecraft
Bus & Motor
SOZ, Unknown motor
Mass
56 kg wet, 56 kg dry
Launch date (UTC)
2019-12-24 (6 years ago)
Launch vehicle
Unknown
Launch site
Tyuratam Missile And Space Complex (TTMTR)
Object type
Payload
Rocket body
Debris
Shape & HBR
Cyl, 1.1 m
Radar Cross Section
0.660 m²

Expand to show TLE details & history

TLE from 2 days ago
0 BLOCK DM-SL DEB
1 45041U 19095C   25180.58822344 -.00000150  00000-0  00000-0 0  9997
2 45041   4.4819  77.9464 0446165  16.4649 344.7634  1.03022646 20709
Epoch: 2025-06-29T14:07Z
TLE epoch observation values (Epoch: 2025-06-29T14:07:02.505Z)
Latitude
0.00001°
Longitude
-51.90685°
Altitude
33,248.216 km
Speed
3.239 km/s
True Right ascension
05h 11m 03s
True Declination
0° 00' 00"
Sunlit
Object was in daylight at epoch
Visualization orbit readout
Latitude
-3.56233°
Longitude
-104.13618°
Altitude
34,297.757 km
Speed
3.158 km/s
Apparent Right ascension
02h 08m 51s
Apparent Declination
-9° 35' 39"
Sunlit
Object is in daylight
Visualization observer readout
Local Sidereal Time
21:10:31
Azimuth
107.298° ESE
Elevation
5.399°
Doppler factor
1
Orbital elements
Apogee altitude
36,881.374 km
Perigee altitude
33,186.07 km
Semi-major axis
41,411.859 km
Eccentricity
0.04462
Inclination
4.4819°
RAAN
77.9464°
Arg. of periapsis
16.4649°
True anomaly
Unknown
Mean anomaly
344.7634°
Eccentric anomaly
Unknown
Mean motion
0.25755 °/min
Orbital period
1,397.8 mins
BSTAR
0
Loading historical data...
45041 neighbors
Loading maneuver chart data...
Loading SW <> Apogee altitude chart data...
Loading historical data...
Loading historical data...
Loading historical data...
Loading historical data...
Loading historical data...
Loading historical data...
Loading historical data...
Other satellites on launch #95 in the year 2019 (2019-12-24 UTC)

BLOCK DM-SL DEB Visibility

Observer location: undefined°, undefined°

BLOCK DM-SL DEB is likely not visible in the next few days
Span
Click to sort rows by Start time (UTC) header in descending order
Start Az.
Max El. time (UTC)
Max El. Az.
Max El.
End time (UTC)
End Az.
|